Chehalis, WA

12:46 AM PST on January 23, 2017 (GMT -0800)
Chehalis-Centralia

Weather History for KCLS - March, 2013

Change the Weather History Date:

Saturday, March 2, 2013

  Actual Average (KTDO) Record (KTDO)
Temperature  
Mean Temperature 47 °F -  
Max Temperature 57 °F 52 °F 70 °F (1986)
Min Temperature 37 °F 35 °F 24 °F (1962)
Degree Days  
Heating Degree Days 18    
Moisture  
Dew Point 44 °F    
Average Humidity 86    
Maximum Humidity 94    
Minimum Humidity 67    
Precipitation  
Precipitation 0.07 in - - ()
Sea Level Pressure  
Sea Level Pressure 30.23 in    
Wind  
Wind Speed 6 mph (SW)    
Max Wind Speed 10 mph    
Max Gust Speed 22 mph    
Visibility 9 miles    
Events Rain    
Averages and records for this station are not official NWS values.
T = Trace of Precipitation, MM = Missing Value Source: NWS Daily Summary

Daily Weather History Graph

Daily Weather History Graph

Search for Another Location

Airport or City:

Trip Planner

Search our weather history database for the weather conditions in past years. The results will help you decide how hot, cold, wet, or windy it might be!

Date:

Astronomy

Mar. 02, 2013 Rise Set
Actual Time 6:48 AM PST 5:59 PM PST
Civil Twilight 6:18 AM PST 6:30 PM PST
Nautical Twilight 5:43 AM PST 7:05 PM PST
Astronomical Twilight 5:08 AM PST 7:40 PM PST
Moon No Moon Rise 8:59 AM PST (3/2)
Length of Visible Light 12h 11m
Length of Day
11h 10m
Waning Gibbous, 73% of the Moon is Illuminated
Mar 2
Waning Gibbous
Mar 4
Last Quarter
Mar 11
New
Mar 19
First Quarter
Mar 27
Full

Hourly Weather History & Observations

Time (PST) Temp. Windchill Dew Point Humidity Pressure Visibility Wind Dir Wind Speed Gust Speed Precip Events Conditions
12:15 AM 50.0 °F - 46.4 °F 87% 30.32 in 10.0 mi SW 6.9 mph - N/A   Clear
12:35 AM 50.0 °F - 46.4 °F 87% 30.31 in 10.0 mi South 6.9 mph - N/A   Partly Cloudy
12:55 AM 50.0 °F - 46.4 °F 87% 30.31 in 10.0 mi SSW 5.8 mph - N/A   Mostly Cloudy
1:15 AM 50.0 °F - 48.2 °F 94% 30.32 in 9.0 mi SSW 5.8 mph - N/A   Overcast
1:35 AM 50.0 °F - 48.2 °F 94% 30.31 in 10.0 mi South 5.8 mph - N/A   Overcast
1:55 AM 50.0 °F - 48.2 °F 94% 30.31 in 9.0 mi South 5.8 mph - N/A   Overcast
2:15 AM 50.0 °F - 48.2 °F 94% 30.30 in 7.0 mi South 6.9 mph - N/A   Overcast
2:35 AM 51.8 °F - 48.2 °F 88% 30.29 in 7.0 mi SSE 6.9 mph - N/A   Overcast
2:55 AM 50.0 °F - 48.2 °F 94% 30.29 in 7.0 mi South 5.8 mph - N/A   Overcast
3:15 AM 50.0 °F - 48.2 °F 94% 30.27 in 8.0 mi SW 4.6 mph - N/A   Overcast
3:35 AM 50.0 °F - 48.2 °F 94% 30.26 in 10.0 mi SW 3.5 mph - N/A   Overcast
3:55 AM 50.0 °F - 46.4 °F 87% 30.26 in 10.0 mi SSW 5.8 mph - N/A   Overcast
4:15 AM 50.0 °F - 46.4 °F 87% 30.25 in 10.0 mi South 6.9 mph - N/A   Overcast
4:35 AM 50.0 °F - 46.4 °F 87% 30.25 in 10.0 mi South 6.9 mph - N/A   Overcast
4:55 AM 48.2 °F - 46.4 °F 93% 30.24 in 10.0 mi SSW 5.8 mph - N/A   Overcast
5:15 AM 48.2 °F - 44.6 °F 87% 30.25 in 10.0 mi South 6.9 mph - N/A   Overcast
5:35 AM 48.2 °F - 44.6 °F 87% 30.24 in 10.0 mi SSW 4.6 mph - N/A   Overcast
5:55 AM 48.2 °F - 44.6 °F 87% 30.24 in 10.0 mi SSW 3.5 mph - N/A   Overcast
6:15 AM 48.2 °F - 44.6 °F 87% 30.23 in 10.0 mi South 6.9 mph - N/A   Overcast
6:35 AM 48.2 °F - 44.6 °F 87% 30.23 in 10.0 mi SSW 6.9 mph - N/A   Overcast
6:55 AM 48.2 °F - 44.6 °F 87% 30.23 in 10.0 mi SSW 5.8 mph - N/A   Overcast
7:15 AM 48.2 °F - 44.6 °F 87% 30.23 in 10.0 mi SW 4.6 mph - N/A   Overcast
7:35 AM 48.2 °F - 44.6 °F 87% 30.23 in 10.0 mi SSW 5.8 mph - N/A   Overcast
7:55 AM 48.2 °F - 44.6 °F 87% 30.22 in 10.0 mi South 5.8 mph - N/A   Overcast
8:15 AM 48.2 °F - 44.6 °F 87% 30.22 in 10.0 mi South 6.9 mph - N/A   Overcast
8:35 AM 48.2 °F - 44.6 °F 87% 30.22 in 10.0 mi SSW 4.6 mph - N/A   Overcast
8:55 AM 48.2 °F - 44.6 °F 87% 30.22 in 10.0 mi South 6.9 mph - N/A   Overcast
9:15 AM 50.0 °F - 46.4 °F 87% 30.21 in 10.0 mi South 8.1 mph - N/A   Overcast
9:35 AM 50.0 °F - 46.4 °F 87% 30.21 in 10.0 mi SSW 8.1 mph - N/A   Overcast
9:55 AM 50.0 °F - 46.4 °F 87% 30.21 in 10.0 mi South 6.9 mph - N/A   Overcast
10:15 AM 50.0 °F - 48.2 °F 94% 30.20 in 10.0 mi South 6.9 mph - N/A   Overcast
10:35 AM 51.8 °F - 48.2 °F 88% 30.20 in 10.0 mi South 5.8 mph - N/A   Mostly Cloudy
10:55 AM 53.6 °F - 48.2 °F 82% 30.19 in 10.0 mi South 5.8 mph - N/A   Overcast
11:15 AM 53.6 °F - 48.2 °F 82% 30.19 in 10.0 mi SSW 5.8 mph - N/A   Mostly Cloudy
11:35 AM 53.6 °F - 48.2 °F 82% 30.19 in 9.0 mi South 6.9 mph - N/A   Mostly Cloudy
11:55 AM 53.6 °F - 48.2 °F 82% 30.18 in 8.0 mi South 5.8 mph - N/A   Overcast
12:15 PM 55.4 °F - 48.2 °F 77% 30.17 in 6.0 mi SSW 5.8 mph - N/A   Haze
12:35 PM 57.2 °F - 46.4 °F 67% 30.16 in 10.0 mi SSW 9.2 mph - N/A   Overcast
12:55 PM 55.4 °F - 46.4 °F 72% 30.15 in 10.0 mi South 10.4 mph - N/A   Overcast
1:35 PM 55.4 °F - 46.4 °F 72% 30.14 in 10.0 mi South 10.4 mph 19.6 mph N/A   Overcast
1:55 PM 53.6 °F - 48.2 °F 82% 30.15 in 2.5 mi WSW 6.9 mph - N/A   Haze
2:15 PM 51.8 °F - 48.2 °F 88% 30.14 in 5.0 mi SSW 6.9 mph - N/A   Mostly Cloudy
2:35 PM 51.8 °F - 48.2 °F 88% 30.14 in 5.0 mi South 6.9 mph - N/A   Mostly Cloudy
2:55 PM 53.6 °F - 50.0 °F 88% 30.14 in 8.0 mi SSW 5.8 mph - 0.01 in   Mostly Cloudy
3:35 PM 48.2 °F - 46.4 °F 93% 30.17 in 8.0 mi WNW 10.4 mph 17.3 mph 0.06 in   Mostly Cloudy
3:55 PM 48.2 °F - 41.0 °F 76% 30.18 in 10.0 mi WNW 10.4 mph 21.9 mph 0.06 in   Scattered Clouds
4:15 PM 48.2 °F - 41.0 °F 76% 30.18 in 7.0 mi West 3.5 mph - N/A   Mostly Cloudy
4:35 PM 46.4 °F 44.3 °F 41.0 °F 81% 30.19 in 10.0 mi West 4.6 mph - N/A   Scattered Clouds
4:55 PM 46.4 °F 45.2 °F 41.0 °F 81% 30.19 in 10.0 mi West 3.5 mph - N/A   Mostly Cloudy
5:15 PM 46.4 °F - 41.0 °F 81% 30.20 in 6.0 mi Calm Calm - N/A   Overcast
5:35 PM 46.4 °F 43.5 °F 41.0 °F 81% 30.20 in 7.0 mi West 5.8 mph - N/A   Scattered Clouds
5:55 PM 46.4 °F 44.3 °F 41.0 °F 81% 30.20 in 7.0 mi NW 4.6 mph - N/A   Mostly Cloudy
6:15 PM 46.4 °F 42.9 °F 39.2 °F 76% 30.21 in 10.0 mi NW 6.9 mph - N/A   Overcast
6:35 PM 44.6 °F 42.2 °F 39.2 °F 81% 30.22 in 10.0 mi WSW 4.6 mph - N/A   Overcast
6:55 PM 44.6 °F 40.2 °F 39.2 °F 81% 30.22 in 10.0 mi WNW 8.1 mph - N/A   Overcast
7:15 PM 42.8 °F 40.1 °F 37.4 °F 81% 30.22 in 10.0 mi West 4.6 mph - N/A   Scattered Clouds
7:35 PM 42.8 °F - 37.4 °F 81% 30.23 in 10.0 mi Calm Calm - N/A   Scattered Clouds
7:55 PM 42.8 °F 41.1 °F 39.2 °F 87% 30.24 in 10.0 mi West 3.5 mph - N/A Rain Light Rain
8:15 PM 42.8 °F 39.3 °F 37.4 °F 81% 30.25 in 10.0 mi West 5.8 mph - N/A   Mostly Cloudy
8:35 PM 41.0 °F 39.0 °F 37.4 °F 87% 30.25 in 10.0 mi WSW 3.5 mph - N/A   Scattered Clouds
8:55 PM 42.8 °F 38.6 °F 37.4 °F 81% 30.26 in 7.0 mi WNW 6.9 mph - N/A Rain Light Rain
9:15 PM 41.0 °F 38.0 °F 37.4 °F 87% 30.25 in 8.0 mi WNW 4.6 mph - N/A   Overcast
9:35 PM 41.0 °F - 37.4 °F 87% 30.25 in 8.0 mi Calm Calm - N/A   Overcast
9:55 PM 39.2 °F 35.9 °F 35.6 °F 87% 30.26 in 9.0 mi WSW 4.6 mph - N/A   Mostly Cloudy
10:15 PM 39.2 °F - 35.6 °F 87% 30.26 in 8.0 mi Calm Calm - N/A   Scattered Clouds
10:35 PM 39.2 °F 37.0 °F 35.6 °F 87% 30.26 in 6.0 mi SSW 3.5 mph - N/A   Clear
10:55 PM 39.2 °F 35.9 °F 35.6 °F 87% 30.27 in 7.0 mi SW 4.6 mph - N/A   Partly Cloudy
11:15 PM 37.4 °F 33.8 °F 35.6 °F 93% 30.27 in 7.0 mi SW 4.6 mph - N/A   Scattered Clouds
11:35 PM 37.4 °F - 35.6 °F 93% 30.27 in 10.0 mi Calm Calm - N/A   Mostly Cloudy
11:55 PM 37.4 °F - 35.6 °F 93% 30.28 in 7.0 mi Calm Calm - N/A   Mostly Cloudy